Location: Baller�as
(41.9020°N, 0.1554°W)
Time: 10:54:34
(UTC+00:00)

Iridium 4 Rocket - Pass Details

Date: 10 August 2020
Orbit: 586 x 903 km, 86.9° (Epoch: 21 September)

Event Time Altitude Azimuth Distance (km) Brightness Sun altitude
Exits shadow 22:35:07 43° 334° (NNW) 870 4.1 -29.2°
Drops below altitude 10° 22:38:06 10° 355° (N) 1,945 6.4 -29.4°
Sets 22:40:16 0° 359° (N) 2,835 7.4 -29.6°
